This demonstration page uses our WeatherBlox Daily Observations layout. Learn more.

Left ArrowRight Arrow

34.74481, -87.66753

Hourly Observations for May 19, 2022

Temp ( °F °C ) Dew Point ( °F °C ) Humidity (%) Winds ( mph kmh ) Pressure ( in mb ) Visibility ( mi km ) Precip ( " mm )
12:53 am 00:53 Clear 75 23.9 68 20 79 79 W 5 7 29.85 1011 10 16 0.00 0.00
1:53 am 01:53 Clear 74 23.3 68 20 82 82 SW 5 7 29.83 1010 10 16 0.00 0.00
2:53 am 02:53 Clear 74 23.3 68 20 82 82 SW 6 9 29.82 1010 10 16 0.00 0.00
3:53 am 03:53 Clear 74 23.3 68 20 82 82 SW 6 9 29.82 1010 10 16 0.00 0.00
4:53 am 04:53 Clear 74 23.3 68 20 82 82 SW 8 13 29.83 1010 10 16 0.00 0.00
5:53 am 05:53 Sunny 73 22.8 68 20 84 84 WSW 6 9 29.84 1011 9 14 0.00 0.00
6:53 am 06:53 Sunny 77 25 69 20.6 77 77 WSW 10 17 29.85 1011 10 16 0.00 0.00
7:53 am 07:53 Sunny 78 25.6 69 20.6 74 74 WSW 9 15 29.85 1011 10 16 0.00 0.00
8:53 am 08:53 Sunny 81 27.2 69 20.6 67 67 WSW 13 20 29.86 1011 10 16 0.00 0.00
9:53 am 09:53 Sunny 84 28.9 69 20.6 61 61 W 10 17 29.86 1011 10 16 0.00 0.00
10:53 am 10:53 Sunny 87 30.6 68 20 53 53 SW 12 19 29.85 1011 10 16 0.00 0.00
11:53 am 11:53 Sunny 88 31.1 68 20 52 52 WSW 13 20 29.85 1011 10 16 0.00 0.00
12:53 pm 12:53 Sunny 88 31.1 67 19.4 50 50 WSW 12 19 29.82 1010 10 16 0.00 0.00
1:53 pm 13:53 Sunny 89 31.7 67 19.4 48 48 SSW 12 19 29.79 1009 10 16 0.00 0.00
2:53 pm 14:53 Sunny 90 32.2 66 18.9 45 45 SSW 10 17 29.76 1008 10 16 0.00 0.00
3:53 pm 15:53 Sunny 91 32.8 63 17.2 39 39 SSW 17 28 29.73 1007 10 16 0.00 0.00
4:53 pm 16:53 Sunny 91 32.8 64 17.8 41 41 SW 15 24 29.72 1006 10 16 0.00 0.00
5:53 pm 17:53 Sunny 89 31.7 64 17.8 43 43 SSW 14 22 29.73 1007 10 16 0.00 0.00
6:53 pm 18:53 Sunny 86 30 65 18.3 49 49 S 12 19 29.72 1006 10 16 0.00 0.00
7:53 pm 19:53 Clear 83 28.3 66 18.9 57 57 S 10 17 29.72 1007 10 16 0.00 0.00
8:53 pm 20:53 Clear 81 27.2 67 19.4 62 62 S 8 13 29.73 1007 10 16 0.00 0.00
9:53 pm 21:53 Clear 79 26.1 67 19.4 67 67 S 9 15 29.75 1008 10 16 0.00 0.00
10:53 pm 22:53 Clear 79 26.1 66 18.9 65 65 S 10 17 29.75 1008 10 16 0.00 0.00
11:53 pm 23:53 Clear 79 26.1 66 18.9 65 65 SSW 10 17 29.75 1007 10 16 0.00 0.00

Powered by AerisWeather